カタログに戻る

AEROCUBE 8D

運用中科学PO
NORAD 41852·PAYLOAD·🇺🇸 United States

打ち上げ Nov 11, 2016 から Vandenberg Space Force Base

Loading…

次のパス (今後24時間)

TLE

最新Source: Space-Track

元期: Sep 14, 2026, 11:02 UTC

1 41852U 16067E   26257.46005218  .00005767  00000-0  23100-3 0  9992
2 41852  98.0521 134.4301 0003457 159.7421 200.3953 15.25486117539673

AllMySatでAEROCUBE 8Dをリアルタイム追跡

Download on the App Store